Location: Caltech
(34.1382°N, 118.1253°W)
Time: 00:02:11
(UTC-07:00)

SL-08 R/B - Visible Passes

Search period start: 30 July 2014 00:00
Search period end: 09 August 2014 00:00
Orbit: 676 x 743 km, 98.1° (Epoch: 29 July)

Date Brightness Start Highest point End Pass type
(mag) Time Alt. Az. Time Alt. Az. Time Alt. Az.
30 Jul 3.6 03:13:41 69° NNE 03:13:41 69° NNE 03:18:07 10° N visible
31 Jul 5.4 02:20:14 22° ENE 02:20:34 22° ENE 02:24:17 10° NNE visible
31 Jul 4.4 03:59:16 31° WNW 03:59:16 31° WNW 04:02:41 10° NNW visible
01 Aug 3.9 03:05:50 58° NE 03:05:50 58° NE 03:10:08 10° N visible
01 Aug 5.5 04:44:52 10° WNW 04:44:52 10° WNW 04:44:56 10° WNW visible
02 Aug 5.7 02:12:23 18° ENE 02:12:42 18° ENE 02:16:00 10° NNE visible
02 Aug 4.2 03:51:26 36° WNW 03:51:26 36° WNW 03:54:53 10° NNW visible
03 Aug 4.2 02:57:59 48° NE 02:57:59 48° NE 03:02:06 10° N visible
03 Aug 5.4 04:37:01 12° WNW 04:37:01 12° WNW 04:37:57 10° WNW visible
04 Aug 5.9 02:04:33 15° ENE 02:04:50 15° ENE 02:07:36 10° NNE visible
04 Aug 4.1 03:43:35 40° NW 03:43:35 40° NW 03:47:02 10° NNW visible
05 Aug 4.6 02:50:09 40° NE 02:50:09 40° NE 02:54:02 10° N visible
05 Aug 5.3 04:29:11 14° WNW 04:29:11 14° WNW 04:30:35 10° NW visible
06 Aug 6.1 01:56:42 13° ENE 01:56:58 13° ENE 01:58:59 10° NE visible
06 Aug 4.1 03:35:45 43° NW 03:35:45 43° NW 03:39:08 10° NNW visible
07 Aug 4.9 02:42:18 33° NE 02:42:18 33° NE 02:45:56 10° N visible
07 Aug 5.2 04:21:21 17° WNW 04:21:21 17° WNW 04:23:02 10° NW visible
08 Aug 6.2 01:48:52 10° ENE 01:49:07 10° ENE 01:49:32 10° ENE visible
08 Aug 4.2 03:27:55 43° NNW 03:27:55 43° NNW 03:31:13 10° NNW visible
